STARLINK-32081, 60348

Orbit data source: Space-Track

STARLINK-32081, 60348 is a payload satellite owned by SpaceX/Seattle (US) in LEO that was launched on Fri, 02 Aug 2024 UTC via an FALCON 9 launch vehicle from the Air Force Eastern Test Range (AFETR). Payload-class satellites include a variety of spacecraft equipped with specific instruments for various scientific and technological missions. These include communications satellites like Starlink; space stations such as the ISS; scientific satellites like the Hubble; Earth observation satellites from companies like Planet Labs, Umbra, and HawkEye 360; GPS; miniature CubeSats for education and research; and military/defense satellites.

Loading next visibility...
Identifier
60348, 2024-136V
Orbit
LEO
Country
Flag of USUS
Related business
Manufacturer
SpaceX/Seattle
Mission
Operational Commercial Communications
Bus & Motor
STARLINK V2M, Unknown motor
Mass
730 kg wet, ~700 kg dry
Launch date (UTC)
2024-08-02 (1 year ago)
Launch vehicle
FALCON 9
Launch site
Air Force Eastern Test Range (AFETR)
Object type
Payload
Rocket body
Debris
Shape & HBR
Box + 2 Pan, 17.7 m
Radar Cross Section
33.884 m², Large (>1 m²)

Expand to show TLE details & history
Last TLE update: 9 hours ago

TLE from 9 hours ago
0 STARLINK-32081
1 60348U 24136V   25299.11485933  .00000505  00000-0  29169-4 0  9999
2 60348  53.1623 340.5289 0001275  94.2404 265.8742 15.30189062 69062
Epoch: 2025-10-26T02:45Z
TLE epoch observation values (Epoch: 2025-10-26T02:45:23.846Z)
Latitude
-0.00004°
Longitude
-95.55619°
Altitude
476.211 km
Speed
7.629 km/s
True Right ascension
22h 42m 06s
True Declination
0° 00' 00"
Sunlit
Object was in full shadow at epoch
Visualization orbit readout
Latitude
Unknown
Longitude
Unknown
Altitude
Unknown
Speed
Unknown
Apparent Right ascension
Unknown
Apparent Declination
Unknown
Sunlit
N/A
Visualization observer readout
Local Sidereal Time
07:21:01
Azimuth
Unknown
Elevation
Unknown
Doppler factor
Unknown
Orbital elements
Apogee altitude
476.378 km
Perigee altitude
474.63 km
Semi-major axis
6,853.641 km
Eccentricity
0.00013
Inclination
53.1623°
RAAN
340.5289°
Arg. of periapsis
94.2404°
True anomaly
265.85963°
Mean anomaly
265.8742°
Eccentric anomaly
265.86691°
Mean motion
3.82526 °/min
Orbital period
94.11 mins
BSTAR
0.000029169
Loading maneuver chart data...
Computing Atmospheric mass density...
Loading historical data...
Loading historical data...
Loading historical data...
Loading historical data...
Loading historical data...
Loading historical data...
Loading historical data...

Documentation

Showing up to 5 results
|